[[{"header":{"parameterUnit":"m.s-1","parameterCategory":1,"la1":30.2991,"la2":30.254,"lo1":-89.0895,"lo2":-89.0444,"dy":0.0017,"dx":0.0017,"nx":28,"ny":28,"refTime":"2024-07-19T21:00:00:Z","depth":0,"parameterNumber":2,"parameterNumberName":"U-component_of_WINDS"},"data":[0,0,0,0,0,0,0,0,0,0,0,0,0,0,0,0,0,0,0,0,0,0,0,0,0,0,0,0,0,0,0,0,0,0,0,0,0,0,0,0,0,0,0,0,0,0,0,0,0,0,0,0,0,0,0,0,0,0,2.958,2.9581,0,2.9631,2.9632,2.9633,2.9625,2.9625,2.9624,2.9623,2.9679,2.9682,2.9684,0,0,0,0,0,0,0,0,0,0,0,0,0,2.9479,2.9481,2.958,2.9581,2.9581,2.9631,2.9632,2.9633,2.9626,2.9625,2.9624,2.9623,2.9679,2.9681,2.9684,0,0,0,0,0,0,0,0,0,0,0,0,0,2.9526,2.9482,2.958,2.9584,2.9585,2.9631,2.9632,2.9633,2.9626,2.9625,2.9623,2.9622,2.9678,2.9681,2.9685,2.9732,0,0,2.9695,2.9697,0,0,0,0,0,0,0,0,2.9524,2.953,2.9583,2.9584,2.9585,2.9621,2.9617,2.9666,2.9626,2.961,2.9623,2.9621,2.9661,2.9666,2.9678,2.9734,2.9737,2.9695,2.9697,2.9699,2.97,0,0,0,0,0,0,0,2.952,2.9528,2.96,2.9583,2.9585,2.9584,2.9589,2.9626,2.9643,2.9612,2.9611,2.9617,2.9661,2.9675,2.968,2.9738,2.9695,2.9698,2.9701,2.9702,2.9835,2.9836,0,0,0,0,0,0,2.9516,2.9525,2.9599,2.9602,2.955,2.9587,2.9593,2.961,2.9642,2.9646,2.9618,2.9617,2.967,2.9676,2.9682,2.9738,2.9699,2.9702,2.9704,2.9833,2.9835,2.9836,0,0,0,0,0,0,2.9513,2.9522,2.9597,2.9563,2.9573,2.959,2.961,2.9612,2.9626,2.9647,2.965,2.9629,2.9669,2.9677,2.9719,2.974,2.9704,2.9707,2.9831,2.9834,2.9836,2.9852,0,0,0,0,0,0,2.9511,2.9521,2.9539,2.9564,2.9575,2.9632,2.9611,2.9614,2.9631,2.963,2.9658,2.9661,2.9669,2.9714,2.9722,2.9744,2.971,2.983,2.9832,2.9835,2.985,2.9855,2.9859,0,0,0,0,0,2.9507,2.9542,2.954,2.9549,2.9596,2.9633,2.964,2.9646,2.9633,2.9651,2.9665,2.966,2.9737,2.9718,2.9728,2.9751,2.9828,2.9832,2.9835,2.9848,2.9854,2.9859,0,0,0,0,0,0,2.9521,2.9546,2.9543,2.9587,2.9608,2.9632,2.9655,2.9652,2.9678,2.9676,2.9684,2.9691,2.9733,2.9747,2.9725,2.9798,2.9781,2.9786,2.9787,2.9793,2.9798,2.9793,2.9712,0,0,0,0,0,2.9529,2.9555,2.9576,2.9613,2.9624,2.9638,2.9654,2.9657,2.9679,2.9689,2.9705,2.9728,2.9757,2.9776,2.9804,2.9852,2.9858,2.9873,2.9877,2.9881,2.9885,2.9911,2.9918,2.9847,2.9847,2.9847,0,0,2.9546,2.9563,2.9579,2.9617,2.9633,2.9661,2.9645,2.9676,2.9697,2.9694,2.9734,2.9747,2.9773,2.9818,2.9839,2.9831,2.9906,2.9885,2.9888,2.989,2.9915,2.9922,2.9928,2.9849,2.9849,2.9849,0,0,2.9591,2.9607,2.9639,2.9655,2.968,2.9689,2.9696,2.9721,2.9729,2.9769,2.9767,2.9793,2.9843,2.9862,2.9878,2.993,2.9927,2.9939,2.9962,2.9987,2.9993,2.9998,3.0015,3.0022,2.9943,2.9943,2.9943,0,2.9609,2.965,2.9656,2.9686,2.9703,2.97,2.9733,2.9749,2.9783,2.9794,2.9785,2.9847,2.9865,2.9913,2.9926,2.9939,2.9949,2.9935,2.9991,2.9996,3.0001,3.0018,3.0025,2.9945,2.9945,2.9944,2.9944,0,2.9671,2.97,2.9723,2.9753,2.9773,2.9805,2.9816,2.9835,2.9837,2.9847,2.9888,2.9909,2.9941,2.9953,2.9956,3.0002,2.9996,2.9989,2.9971,3.0009,3.0025,3.0031,2.9946,2.9946,2.9946,2.9945,0,0,2.9726,2.9758,2.9767,2.978,2.9807,2.983,2.9862,2.9892,2.9908,2.9931,2.9958,3.0001,2.9993,3.0012,3.0017,3.0039,3.0078,3.0029,3.0029,3.0036,3.013,3.0134,3.0141,3.0076,3.0078,3.0079,3.0127,0,2.9772,2.9827,2.9833,2.9882,2.9909,2.9907,2.9935,2.9955,2.9966,2.9991,3.0003,3.0032,3.0022,3.0032,3.0054,3.0068,3.0096,3.0065,3.0102,3.0103,3.0094,3.015,3.0155,3.0199,3.0133,3.0135,3.0135,0,2.9834,2.9857,2.9909,2.9931,2.9943,2.9968,2.9995,3.0019,3.0042,3.0049,3.0068,3.007,3.0104,3.0086,3.0133,3.0112,3.0128,3.0137,3.0139,3.0142,3.012,3.0153,3.0214,3.022,3.0146,3.0145,3.0144,0,2.9867,2.9912,2.9948,2.996,2.9988,3.0005,3.0018,3.0039,3.0057,3.0082,3.0093,3.0122,3.0138,3.0161,3.0171,3.0157,3.0217,3.02,3.0223,3.0223,3.0235,3.0234,3.0297,3.0247,3.0247,3.0247,3.0247,0,2.9918,2.9949,2.9963,2.9985,3.002,3.0028,3.0063,3.0075,3.0094,3.012,3.0121,3.0145,3.0157,3.0183,3.0192,3.0229,3.0236,3.0243,3.0244,3.0242,3.0241,3.0251,3.0248,3.0249,3.0248,3.0248,3.0248,0,2.996,2.997,3.001,3.0033,3.0039,3.0064,3.0084,3.0106,3.0117,3.0148,3.0156,3.0173,3.0204,3.0216,3.0255,3.026,3.0303,3.0303,3.0294,3.0295,3.0317,3.0314,3.0388,3.0398,3.0342,3.0343,3.0343,0,2.9991,3.0015,3.004,3.0056,3.0069,3.0095,3.0113,3.0121,3.014,3.0168,3.0186,3.0217,3.0241,3.0291,3.0307,3.0336,3.0336,3.036,3.0341,3.0337,3.0335,3.0333,3.0335,3.0364,3.0364,3.0365,3.0365,0,3.0045,3.0048,3.0073,3.0099,3.0119,3.014,3.0161,3.0175,3.0187,3.0208,3.0238,3.0257,3.0295,3.0325,3.0356,3.037,3.037,3.0371,3.0378,3.0375,3.0368,3.0371,3.0303,3.0369,3.0369,3.0368,3.0368,3.0368,3.0081,3.0102,3.0123,3.015,3.0166,3.0185,3.0207,3.0219,3.0245,3.0275,3.028,3.0312,3.0335,3.0375,3.0391,3.0417,3.0411,3.0421,3.0423,3.0425,3.0426,3.0365,3.0423,3.0423,3.0423,3.0423,3.0423,0,3.0134,3.0147,3.0172,3.02,3.0221,3.0218,3.0241,3.026,3.0288,3.0309,3.0332,3.0368,3.0397,3.0415,3.0445,3.0463,3.0463,3.047,3.0468,3.0471,3.0431,3.0421,3.0469,3.0469,3.0469,3.0469,3.0469,3.0469,3.0164,3.0198,3.0204,3.0247,3.0261,3.0291,3.0305,3.0323,3.0339,3.0378,3.0402,3.0413,3.0433,3.0464,3.0491,3.0496,3.0507,3.0514,3.0518,3.0479,3.0474,3.047,3.0461,3.0516,3.0516,3.0556,3.0557,3.0557]},{"header":{"parameterUnit":"m.s-1","parameterCategory":1,"la1":30.2991,"la2":30.254,"lo1":-89.0895,"lo2":-89.0444,"dy":0.0017,"dx":0.0017,"nx":28,"ny":28,"refTime":"2024-07-19T21:00:00:Z","depth":0,"parameterNumber":3,"parameterNumberName":"V-component_of_WINDS"},"data":[0,0,0,0,0,0,0,0,0,0,0,0,0,0,0,0,0,0,0,0,0,0,0,0,0,0,0,0,0,0,0,0,0,0,0,0,0,0,0,0,0,0,0,0,0,0,0,0,0,0,0,0,0,0,0,0,0,0,1.7037,1.7037,0,1.7037,1.7037,1.7037,1.7049,1.7049,1.705,1.705,1.7048,1.7048,1.7048,0,0,0,0,0,0,0,0,0,0,0,0,0,1.7048,1.7047,1.7037,1.7037,1.7037,1.7037,1.7037,1.7037,1.7049,1.7049,1.705,1.705,1.7049,1.7048,1.7048,0,0,0,0,0,0,0,0,0,0,0,0,0,1.7045,1.7047,1.7037,1.7043,1.7044,1.7037,1.7037,1.7037,1.7049,1.7049,1.705,1.705,1.7049,1.7048,1.7048,1.7035,0,0,1.7046,1.7046,0,0,0,0,0,0,0,0,1.7045,1.7044,1.7042,1.7043,1.7043,1.7043,1.704,1.7036,1.7049,1.7047,1.705,1.7051,1.7046,1.7046,1.7045,1.7034,1.7034,1.7046,1.7046,1.7045,1.7045,0,0,0,0,0,0,0,1.7045,1.7044,1.7037,1.7042,1.7043,1.7046,1.7046,1.7039,1.7044,1.7047,1.7048,1.7048,1.7047,1.7045,1.7045,1.7034,1.7046,1.7046,1.7045,1.7045,1.7013,1.7012,0,0,0,0,0,0,1.7044,1.7044,1.7037,1.7037,1.7045,1.7045,1.7045,1.7043,1.7044,1.7045,1.7047,1.7048,1.7046,1.7045,1.7045,1.7029,1.7045,1.7045,1.7045,1.7013,1.7013,1.7012,0,0,0,0,0,0,1.7045,1.7044,1.7037,1.7041,1.704,1.7044,1.7042,1.7043,1.7041,1.7044,1.7045,1.7045,1.7046,1.7046,1.7037,1.7029,1.7045,1.7044,1.7014,1.7013,1.7012,1.6997,0,0,0,0,0,0,1.7045,1.7044,1.7039,1.7041,1.704,1.7029,1.7041,1.7042,1.704,1.7042,1.7042,1.7043,1.7047,1.7038,1.7036,1.7029,1.7044,1.7015,1.7014,1.7013,1.6998,1.6996,1.6994,0,0,0,0,0,1.7045,1.7034,1.7039,1.7038,1.7034,1.7029,1.7028,1.7033,1.704,1.7035,1.7037,1.7043,1.703,1.7037,1.7035,1.7027,1.7015,1.7014,1.7013,1.6999,1.6996,1.6994,0,0,0,0,0,0,1.7031,1.7035,1.7039,1.7029,1.7028,1.7031,1.7025,1.703,1.7027,1.7029,1.7035,1.7035,1.7025,1.7026,1.7032,1.7014,1.7024,1.7022,1.7014,1.7011,1.7009,1.7009,1.7043,0,0,0,0,0,1.7027,1.7022,1.7026,1.7016,1.7016,1.702,1.7018,1.7022,1.7022,1.7021,1.7023,1.7022,1.7018,1.7015,1.7011,1.6999,1.6999,1.6993,1.6991,1.6989,1.6987,1.698,1.6977,1.7008,1.7008,1.7008,0,0,1.7017,1.7019,1.7016,1.7013,1.7014,1.7008,1.702,1.7014,1.701,1.7021,1.7012,1.7013,1.7013,1.7002,1.6997,1.7002,1.6978,1.6987,1.6986,1.6985,1.6978,1.6975,1.6972,1.7007,1.7007,1.7008,0,0,1.6998,1.6999,1.6991,1.6991,1.6991,1.6994,1.6993,1.6994,1.6995,1.6988,1.6995,1.6991,1.6984,1.6983,1.6981,1.6962,1.6967,1.6961,1.6948,1.6941,1.6939,1.6937,1.6929,1.6926,1.6959,1.6959,1.6959,0,1.6986,1.6979,1.6986,1.698,1.6978,1.6988,1.6979,1.6979,1.6978,1.6977,1.6982,1.6974,1.6974,1.6963,1.6958,1.6957,1.6955,1.696,1.6939,1.6937,1.6935,1.6927,1.6924,1.6959,1.6959,1.6959,1.6959,0,1.6964,1.6959,1.6953,1.6952,1.695,1.6942,1.6948,1.6945,1.6949,1.6952,1.6943,1.6944,1.6941,1.6939,1.6943,1.6928,1.6931,1.6938,1.6947,1.6931,1.6924,1.6921,1.6957,1.6958,1.6958,1.6958,0,0,1.6934,1.6938,1.6935,1.6935,1.6936,1.6932,1.6925,1.6923,1.6919,1.6919,1.6913,1.6907,1.6913,1.6911,1.6916,1.691,1.6894,1.6917,1.6917,1.6912,1.6876,1.687,1.6867,1.6898,1.6897,1.6897,1.6876,0,1.6914,1.6902,1.6909,1.6896,1.6891,1.6901,1.6895,1.6895,1.6898,1.6894,1.6896,1.6892,1.6901,1.69,1.6895,1.6897,1.6886,1.6898,1.6891,1.6891,1.6889,1.6863,1.6857,1.6837,1.6873,1.6873,1.6873,0,1.6889,1.6887,1.6874,1.6877,1.6875,1.6869,1.6867,1.6864,1.6864,1.6866,1.6865,1.6871,1.6864,1.6874,1.6864,1.6872,1.687,1.6871,1.687,1.6868,1.6879,1.6859,1.6831,1.6827,1.6869,1.6869,1.6869,0,1.6866,1.6861,1.6853,1.6852,1.6855,1.6851,1.6852,1.6853,1.6851,1.6849,1.6848,1.6845,1.6843,1.6841,1.6846,1.6853,1.6835,1.6846,1.6836,1.6835,1.683,1.683,1.6799,1.6831,1.6831,1.6831,1.6831,0,1.6842,1.6834,1.6843,1.6837,1.6828,1.6835,1.6826,1.6828,1.6829,1.6823,1.6832,1.6827,1.6835,1.683,1.6834,1.6825,1.6824,1.6825,1.6826,1.6824,1.6823,1.6821,1.6822,1.683,1.683,1.683,1.6831,0,1.6815,1.6821,1.6812,1.6816,1.6817,1.6809,1.6812,1.6807,1.6811,1.6804,1.6803,1.6809,1.6804,1.6809,1.6805,1.6807,1.6794,1.6798,1.6794,1.6794,1.6783,1.6783,1.6748,1.6743,1.678,1.678,1.6779,0,1.6798,1.6792,1.6795,1.6793,1.6793,1.6789,1.6787,1.6795,1.6792,1.6793,1.6787,1.6783,1.678,1.6772,1.6775,1.6772,1.6775,1.6763,1.6774,1.6772,1.6773,1.6772,1.6771,1.676,1.6759,1.6759,1.6759,0,1.6768,1.6771,1.6768,1.6766,1.6764,1.6763,1.6762,1.6759,1.6768,1.6764,1.676,1.6758,1.6754,1.6749,1.6747,1.6747,1.6754,1.6755,1.6752,1.6749,1.6746,1.6746,1.6786,1.6756,1.6756,1.6756,1.6756,1.6756,1.6744,1.6739,1.674,1.6737,1.6737,1.6737,1.6732,1.6736,1.6732,1.6729,1.6734,1.6728,1.6729,1.6727,1.6727,1.6722,1.6727,1.6723,1.6722,1.672,1.6718,1.6749,1.6722,1.6722,1.6722,1.6722,1.6722,0,1.6713,1.6715,1.6711,1.6711,1.6708,1.6716,1.6716,1.6712,1.6707,1.6708,1.6705,1.67,1.6696,1.6699,1.6696,1.6691,1.6694,1.669,1.6689,1.6689,1.6714,1.6716,1.6687,1.6687,1.6687,1.6687,1.6687,1.6687,1.6696,1.6687,1.6691,1.6682,1.6684,1.6679,1.6678,1.6677,1.6678,1.6671,1.6668,1.6671,1.6672,1.6669,1.6666,1.6667,1.6665,1.6659,1.6661,1.6684,1.6687,1.6691,1.6692,1.6659,1.6659,1.6636,1.6636,1.6636]}]]